• In Uzbekistan
  • List of Countries
  • For 7 days
  • Water Temperature
  • Satellite Maps
  • Weather Map
  • Weather Widgets
  • user-avatar
    Login

    Hourly Weather Louangphabang

    Today, 19 October, Thursday

    Time Temperature Precipitation Wind Pressure Humidity
    00:00 +19°C° 0 mm 0 mps 699 mmHg 88%
    01:00 +19°C° 0 mm 0 mps 699 mmHg 87%
    02:00 +19°C° 0 mm 0 mps 699 mmHg 88%
    03:00 +19°C° 0 mm 0 mps 699 mmHg 88%
    04:00 +18°C° 0 mm 0 mps 698 mmHg 89%
    05:00 +19°C° 0 mm 0 mps 699 mmHg 88%
    06:00 +19°C° 0 mm 0 mps 699 mmHg 88%
    07:00 +21°C° 0 mm 1 mps 699 mmHg 86%
    08:00 +24°C° 0 mm 1 mps 700 mmHg 76%
    09:00 +27°C° 0 mm 1 mps 700 mmHg 66%
    10:00 +29°C° 0 mm 1 mps 700 mmHg 56%
    11:00 +30°C° 0.1 mm 1 mps 700 mmHg 54%
    12:00 +31°C° 0.1 mm 1 mps 699 mmHg 53%
    13:00 +30°C° 0.1 mm 0 mps 699 mmHg 51%
    14:00 +29°C° 0.3 mm 0 mps 698 mmHg 56%
    15:00 +29°C° 0.3 mm 0 mps 698 mmHg 60%
    16:00 +28°C° 0.3 mm 0 mps 697 mmHg 64%
    17:00 +26°C° 0.2 mm 0 mps 697 mmHg 71%
    18:00 +24°C° 0.2 mm 0 mps 697 mmHg 78%
    19:00 +22°C° 0.2 mm 0 mps 697 mmHg 85%
    20:00 +22°C° 0.1 mm 0 mps 698 mmHg 87%
    21:00 +21°C° 0.1 mm 0 mps 698 mmHg 88%
    22:00 +21°C° 0.1 mm 0 mps 699 mmHg 90%
    23:00 +21°C° 0.2 mm 0 mps 699 mmHg 91%

    Tomorrow, 20 October, Friday

    Time Temperature Precipitation Wind Pressure Humidity
    00:00 +21°C° 0.2 mm 0 mps 699 mmHg 91%
    01:00 +21°C° 0.2 mm 0 mps 699 mmHg 92%
    02:00 +20°C° 0.4 mm 0 mps 699 mmHg 93%
    03:00 +20°C° 0.4 mm 0 mps 699 mmHg 94%
    04:00 +20°C° 0.4 mm 0 mps 699 mmHg 95%
    05:00 +20°C° 0.2 mm 0 mps 699 mmHg 95%
    06:00 +20°C° 0.2 mm 0 mps 699 mmHg 94%
    07:00 +21°C° 0.2 mm 0 mps 699 mmHg 94%
    08:00 +23°C° 0.1 mm 0 mps 700 mmHg 84%
    09:00 +25°C° 0.1 mm 0 mps 700 mmHg 74%
    10:00 +28°C° 0.1 mm 0 mps 701 mmHg 65%
    11:00 +28°C° 0.7 mm 0 mps 700 mmHg 64%
    12:00 +29°C° 0.7 mm 0 mps 699 mmHg 63%
    13:00 +30°C° 0.7 mm 0 mps 698 mmHg 63%
    14:00 +29°C° 0.7 mm 0 mps 698 mmHg 66%
    15:00 +28°C° 0.7 mm 0 mps 697 mmHg 70%
    16:00 +28°C° 0.7 mm 0 mps 696 mmHg 74%
    17:00 +26°C° 0.2 mm 0 mps 696 mmHg 79%
    18:00 +24°C° 0.2 mm 0 mps 697 mmHg 84%
    19:00 +22°C° 0.2 mm 0 mps 697 mmHg 89%
    20:00 +22°C° 0 mm 0 mps 697 mmHg 90%
    21:00 +21°C° 0 mm 0 mps 698 mmHg 92%
    22:00 +21°C° 0 mm 0 mps 698 mmHg 93%
    23:00 +21°C° 0 mm 0 mps 698 mmHg 95%

    Day after tomorrow, 21 October, Saturday

    Time Temperature Precipitation Wind Pressure Humidity
    00:00 +20°C° 0 mm 0 mps 698 mmHg 96%
    01:00 +20°C° 0 mm 0 mps 698 mmHg 97%
    02:00 +20°C° 0 mm 0 mps 698 mmHg 97%
    03:00 +20°C° 0 mm 0 mps 697 mmHg 98%
    04:00 +20°C° 0 mm 0 mps 697 mmHg 98%
    05:00 +20°C° 0 mm 0 mps 697 mmHg 97%
    06:00 +20°C° 0 mm 0 mps 698 mmHg 96%
    07:00 +20°C° 0 mm 0 mps 698 mmHg 95%
    08:00 +23°C° 0.1 mm 0 mps 699 mmHg 86%
    09:00 +25°C° 0.1 mm 0 mps 699 mmHg 77%
    10:00 +28°C° 0.1 mm 0 mps 700 mmHg 68%
    11:00 +29°C° 0.1 mm 0 mps 699 mmHg 62%
    12:00 +30°C° 0.1 mm 0 mps 698 mmHg 56%
    13:00 +32°C° 0.1 mm 0 mps 698 mmHg 50%
    14:00 +31°C° 0.1 mm 0 mps 697 mmHg 53%
    15:00 +30°C° 0.1 mm 0 mps 696 mmHg 57%
    16:00 +29°C° 0.1 mm 0 mps 695 mmHg 60%
    17:00 +27°C° 0 mm 0 mps 695 mmHg 68%
    18:00 +25°C° 0 mm 0 mps 696 mmHg 77%
    19:00 +23°C° 0 mm 0 mps 696 mmHg 85%
    20:00 +22°C° 0.4 mm 0 mps 696 mmHg 87%
    21:00 +22°C° 0.4 mm 0 mps 697 mmHg 90%
    22:00 +21°C° 0.4 mm 0 mps 697 mmHg 92%
    23:00 +21°C° 1.5 mm 0 mps 697 mmHg 94%

    22 October, Sunday

    Time Temperature Precipitation Wind Pressure Humidity
    00:00 +21°C° 1.5 mm 0 mps 697 mmHg 96%
    01:00 +20°C° 1.5 mm 0 mps 697 mmHg 98%
    02:00 +20°C° 0.9 mm 0 mps 696 mmHg 98%
    03:00 +20°C° 0.9 mm 0 mps 696 mmHg 99%
    04:00 +20°C° 0.9 mm 0 mps 696 mmHg 99%
    05:00 +20°C° 0.2 mm 0 mps 696 mmHg 99%
    06:00 +20°C° 0.2 mm 0 mps 697 mmHg 98%
    07:00 +20°C° 0.2 mm 0 mps 697 mmHg 98%
    08:00 +23°C° 0.2 mm 0 mps 698 mmHg 87%
    09:00 +25°C° 0.2 mm 0 mps 698 mmHg 76%
    10:00 +28°C° 0.2 mm 0 mps 699 mmHg 65%
    11:00 +28°C° 0.2 mm 0 mps 698 mmHg 63%
    12:00 +31°C° 0.2 mm 1 mps 697 mmHg 60%
    13:00 +32°C° 0.2 mm 1 mps 696 mmHg 57%
    14:00 +31°C° 0.5 mm 1 mps 696 mmHg 64%
    15:00 +28°C° 0.5 mm 0 mps 695 mmHg 71%
    16:00 +28°C° 0.5 mm 0 mps 695 mmHg 77%
    17:00 +26°C° 0.5 mm 0 mps 695 mmHg 82%
    18:00 +24°C° 0.5 mm 0 mps 695 mmHg 87%
    19:00 +22°C° 0.5 mm 0 mps 696 mmHg 92%
    20:00 +22°C° 0.5 mm 0 mps 696 mmHg 94%
    21:00 +21°C° 0.5 mm 0 mps 697 mmHg 95%
    22:00 +21°C° 0.5 mm 0 mps 697 mmHg 97%
    23:00 +21°C° 1.5 mm 0 mps 697 mmHg 98%

    23 October, Monday

    Time Temperature Precipitation Wind Pressure Humidity
    00:00 +20°C° 1.5 mm 0 mps 697 mmHg 98%
    01:00 +20°C° 1.5 mm 0 mps 697 mmHg 99%
    02:00 +20°C° 1 mm 0 mps 697 mmHg 99%
    03:00 +20°C° 1 mm 0 mps 697 mmHg 99%
    04:00 +20°C° 1 mm 0 mps 696 mmHg 99%
    05:00 +20°C° 0.2 mm 0 mps 697 mmHg 99%
    06:00 +20°C° 0.2 mm 0 mps 698 mmHg 99%
    07:00 +20°C° 0.2 mm 0 mps 698 mmHg 98%
    08:00 +21°C° 0.3 mm 0 mps 699 mmHg 96%
    09:00 +22°C° 0.3 mm 0 mps 699 mmHg 93%
    10:00 +23°C° 0.3 mm 0 mps 700 mmHg 90%
    11:00 +24°C° 0.8 mm 0 mps 699 mmHg 90%
    12:00 +25°C° 0.8 mm 0 mps 698 mmHg 90%
    13:00 +25°C° 0.8 mm 0 mps 698 mmHg 90%
    14:00 +25°C° 1 mm 0 mps 697 mmHg 91%
    15:00 +25°C° 1 mm 0 mps 697 mmHg 91%
    16:00 +25°C° 1 mm 0 mps 697 mmHg 91%
    17:00 +23°C° 0.6 mm 0 mps 697 mmHg 93%
    18:00 +22°C° 0.6 mm 0 mps 698 mmHg 95%
    19:00 +21°C° 0.6 mm 0 mps 698 mmHg 97%
    20:00 +21°C° 0.2 mm 0 mps 699 mmHg 98%
    21:00 +21°C° 0.2 mm 0 mps 699 mmHg 98%
    22:00 +20°C° 0.2 mm 0 mps 700 mmHg 98%
    23:00 +20°C° 0.3 mm 0 mps 700 mmHg 98%

    24 October, Tuesday

    Time Temperature Precipitation Wind Pressure Humidity
    00:00 +20°C° 0.3 mm 0 mps 700 mmHg 98%
    01:00 +20°C° 0.3 mm 0 mps 699 mmHg 98%
    02:00 +20°C° 0.3 mm 0 mps 699 mmHg 99%
    03:00 +20°C° 0.3 mm 0 mps 699 mmHg 99%
    04:00 +19°C° 0.3 mm 0 mps 699 mmHg 99%
    05:00 +19°C° 0.4 mm 0 mps 700 mmHg 98%
    06:00 +19°C° 0.4 mm 0 mps 700 mmHg 98%
    07:00 +19°C° 0.4 mm 0 mps 701 mmHg 98%
    08:00 +20°C° 0.2 mm 0 mps 701 mmHg 94%
    09:00 +21°C° 0.2 mm 0 mps 702 mmHg 89%
    10:00 +22°C° 0.2 mm 0 mps 702 mmHg 85%
    11:00 +23°C° 0.3 mm 0 mps 701 mmHg 80%
    12:00 +24°C° 0.3 mm 0 mps 701 mmHg 76%
    13:00 +27°C° 0.3 mm 1 mps 700 mmHg 71%
    14:00 +25°C° 0.2 mm 0 mps 700 mmHg 71%
    15:00 +25°C° 0.2 mm 0 mps 699 mmHg 70%
    16:00 +25°C° 0.2 mm 0 mps 699 mmHg 70%
    17:00 +24°C° 0 mm 0 mps 699 mmHg 76%
    18:00 +22°C° 0 mm 0 mps 700 mmHg 81%
    19:00 +21°C° 0 mm 0 mps 700 mmHg 87%
    20:00 +20°C° 0 mm 0 mps 700 mmHg 88%
    21:00 +20°C° 0 mm 0 mps 701 mmHg 89%
    22:00 +20°C° 0 mm 0 mps 701 mmHg 90%
    23:00 +19°C° 0 mm 0 mps 701 mmHg 91%
    Show more